Location: Eaton Estates
(41.3089°N, 82.0057°W)
Time: 08:22:37
(UTC+00:00)

USA 215 - Pass Details

Date: 17 June 2021
Orbit: 1100 x 1107 km, 123.0° (Epoch: 22 June)

Event Time Altitude Azimuth Distance (km) Brightness Sun altitude
Rises 04:43:24 0° 45° (NE) 3,922 6.6 -24.4°
Reaches altitude 10° 04:45:56 10° 41° (NE) 2,962 6.0 -24.5°
Maximum altitude 04:52:15 54° 327° (NNW) 1,324 3.9 -24.7°
Drops below altitude 10° 04:58:33 10° 252° (WSW) 2,954 5.4 -24.9°
Sets 05:01:04 0° 248° (WSW) 3,910 6.0 -25.0°
